Mesquite, TX

4:46 PM CST on February 19, 2017 (GMT -0600)
Mesquite Metro

Weather History for KHQZ - December, 2013

Change the Weather History Date:

Sunday, December 15, 2013

  Actual Average (KDFW) Record (KDFW)
Temperature  
Mean Temperature 42 °F -  
Max Temperature 58 °F 55 °F 83 °F (1908)
Min Temperature 25 °F 35 °F 9 °F (1901)
Degree Days  
Heating Degree Days 24    
Moisture  
Dew Point 29 °F    
Average Humidity 68    
Maximum Humidity 94    
Minimum Humidity 31    
Precipitation  
Precipitation 0.00 in - - ()
Sea Level Pressure  
Sea Level Pressure 30.30 in    
Wind  
Wind Speed 0 mph (SW)    
Max Wind Speed 7 mph    
Max Gust Speed -    
Visibility 8 miles    
Events      
Averages and records for this station are not official NWS values.
T = Trace of Precipitation, MM = Missing Value Source: NWS Daily Summary

Daily Weather History Graph

Daily Weather History Graph

Search for Another Location

Airport or City:

Trip Planner

Search our weather history database for the weather conditions in past years. The results will help you decide how hot, cold, wet, or windy it might be!

Date:

Astronomy

Dec. 15, 2013 Rise Set
Actual Time 7:21 AM CST 5:21 PM CST
Civil Twilight 6:53 AM CST 5:48 PM CST
Nautical Twilight 6:23 AM CST 6:19 PM CST
Astronomical Twilight 5:53 AM CST 6:49 PM CST
Moon 4:23 PM CST (12/15) 5:42 AM CST (12/15)
Length of Visible Light 10h 55m
Length of Day
10h 00m
Waxing Gibbous, 98% of the Moon is Illuminated
Dec 15
Waxing Gibbous
Dec 17
Full
Dec 25
Last Quarter
Jan 1
New
Jan 7
First Quarter

Hourly Weather History & Observations

Time (CST) Temp. Dew Point Humidity Pressure Visibility Wind Dir Wind Speed Gust Speed Precip Events Conditions
12:15 AM 32.0 °F 25.7 °F 78% 30.32 in 7.0 mi Calm Calm - N/A   Clear
12:35 AM 32.0 °F 25.5 °F 77% 30.32 in 7.0 mi Calm Calm - N/A   Clear
12:55 AM 31.8 °F 26.2 °F 80% 30.32 in 7.0 mi Calm Calm - N/A   Clear
1:15 AM 32.9 °F 26.4 °F 77% 30.32 in 7.0 mi Calm Calm - N/A   Clear
1:35 AM 33.8 °F 26.4 °F 74% 30.32 in 7.0 mi Calm Calm - N/A   Clear
1:55 AM 33.1 °F 26.6 °F 77% 30.32 in 7.0 mi Calm Calm - N/A   Clear
2:15 AM 30.9 °F 25.3 °F 80% 30.32 in 7.0 mi Calm Calm - N/A   Clear
2:35 AM 27.0 °F 23.9 °F 88% 30.32 in 5.0 mi Calm Calm - N/A   Clear
2:55 AM 30.2 °F 25.9 °F 84% 30.32 in 7.0 mi Calm Calm - N/A   Clear
3:15 AM 29.5 °F 25.9 °F 86% 30.32 in 7.0 mi Calm Calm - N/A   Clear
3:35 AM 26.6 °F 23.4 °F 88% 30.32 in 5.0 mi Calm Calm - N/A   Clear
3:55 AM 27.3 °F 25.0 °F 91% 30.32 in 5.0 mi Calm Calm - N/A   Clear
4:15 AM 30.2 °F 26.6 °F 86% 30.32 in 7.0 mi Calm Calm - N/A   Clear
4:35 AM 29.7 °F 26.1 °F 86% 30.32 in 7.0 mi Calm Calm - N/A   Clear
4:55 AM 30.2 °F 26.2 °F 85% 30.32 in 7.0 mi Calm Calm - N/A   Clear
5:15 AM 27.1 °F 25.5 °F 94% 30.32 in 3.0 mi Calm Calm - N/A   Clear
5:35 AM 27.3 °F 25.9 °F 94% 30.32 in 4.0 mi Calm Calm - N/A   Clear
5:55 AM 26.6 °F 25.2 °F 94% 30.32 in 4.0 mi Calm Calm - N/A   Clear
6:15 AM 29.1 °F 27.1 °F 92% 30.32 in 5.0 mi Calm Calm - N/A   Clear
6:35 AM 28.6 °F 25.3 °F 88% 30.33 in 7.0 mi Calm Calm - N/A   Clear
6:55 AM 26.1 °F 24.3 °F 93% 30.33 in 5.0 mi Calm Calm - N/A   Clear
7:15 AM 26.8 °F 25.0 °F 93% 30.34 in 4.0 mi Calm Calm - N/A   Clear
7:35 AM 25.2 °F 23.5 °F 94% 30.34 in 2.5 mi Calm Calm - N/A   Clear
7:55 AM 25.9 °F 24.1 °F 93% 30.35 in 2.5 mi Calm Calm - N/A   Clear
8:15 AM 28.2 °F 26.8 °F 94% 30.35 in 3.0 mi Calm Calm - N/A   Clear
8:35 AM 31.1 °F 28.9 °F 92% 30.36 in 3.0 mi Calm Calm - N/A   Clear
8:55 AM 33.3 °F 29.8 °F 87% 30.36 in 4.0 mi Calm Calm - N/A   Clear
9:15 AM 36.3 °F 31.3 °F 82% 30.36 in 5.0 mi Calm Calm - N/A   Clear
9:35 AM 38.3 °F 30.7 °F 74% 30.37 in 5.0 mi Calm Calm - N/A   Clear
9:55 AM 40.3 °F 31.5 °F 71% 30.37 in 7.0 mi Calm Calm - N/A   Clear
10:15 AM 42.8 °F 31.6 °F 65% 30.37 in 7.0 mi Calm Calm - N/A   Clear
10:35 AM 46.2 °F 30.2 °F 54% 30.37 in 10.0 mi Calm Calm - N/A   Clear
10:55 AM 48.2 °F 30.7 °F 51% 30.37 in 10.0 mi Calm Calm - N/A   Clear
11:15 AM 49.8 °F 28.2 °F 43% 30.36 in 10.0 mi Calm Calm - N/A   Clear
11:35 AM 50.2 °F 28.0 °F 42% 30.34 in 10.0 mi Calm Calm - N/A   Clear
11:55 AM 51.8 °F 28.6 °F 41% 30.33 in 10.0 mi Calm Calm - N/A   Clear
12:15 PM 52.7 °F 30.0 °F 42% 30.32 in 10.0 mi Calm Calm - N/A   Clear
12:35 PM 52.9 °F 30.9 °F 43% 30.31 in 10.0 mi Calm Calm - N/A   Clear
12:55 PM 53.8 °F 30.0 °F 40% 30.30 in 10.0 mi Calm Calm - N/A   Clear
1:15 PM 54.1 °F 30.6 °F 41% 30.29 in 10.0 mi Calm Calm - N/A   Clear
1:35 PM 55.4 °F 31.1 °F 40% 30.29 in 10.0 mi WSW 5.8 mph - N/A   Clear
1:55 PM 56.3 °F 30.4 °F 37% 30.28 in 10.0 mi Calm Calm - N/A   Clear
2:15 PM 57.0 °F 27.5 °F 32% 30.28 in 10.0 mi West 4.6 mph - N/A   Clear
2:35 PM 57.4 °F 27.7 °F 32% 30.27 in 10.0 mi WSW 5.8 mph - N/A   Clear
2:55 PM 57.2 °F 27.1 °F 32% 30.27 in 10.0 mi Calm Calm - N/A   Clear
3:15 PM 57.6 °F 27.7 °F 32% 30.27 in 10.0 mi Calm Calm - N/A   Clear
3:35 PM 57.7 °F 27.9 °F 32% 30.27 in 10.0 mi Calm Calm - N/A   Clear
3:55 PM 58.1 °F 27.3 °F 31% 30.26 in 10.0 mi Calm Calm - N/A   Clear
4:15 PM 57.9 °F 27.1 °F 31% 30.26 in 10.0 mi Calm Calm - N/A   Clear
4:35 PM 57.2 °F 28.2 °F 33% 30.25 in 10.0 mi Calm Calm - N/A   Clear
4:55 PM 55.0 °F 29.5 °F 38% 30.24 in 10.0 mi Calm Calm - N/A   Clear
5:15 PM 51.4 °F 29.5 °F 43% 30.24 in 10.0 mi Calm Calm - N/A   Clear
5:35 PM 50.0 °F 32.7 °F 52% 30.25 in 10.0 mi SSE 6.9 mph - N/A   Clear
5:55 PM 48.6 °F 34.2 °F 58% 30.25 in 10.0 mi Calm Calm - N/A   Clear
6:15 PM 46.4 °F 34.0 °F 62% 30.26 in 10.0 mi Calm Calm - N/A   Clear
6:35 PM 45.1 °F 33.8 °F 65% 30.25 in 10.0 mi Calm Calm - N/A   Clear
6:55 PM 44.4 °F 33.4 °F 65% 30.27 in 10.0 mi Calm Calm - N/A   Clear
7:15 PM 43.2 °F 33.1 °F 68% 30.26 in 10.0 mi Calm Calm - N/A   Clear
7:35 PM 41.4 °F 32.9 °F 72% 30.26 in 10.0 mi Calm Calm - N/A   Clear
7:55 PM 41.0 °F 32.9 °F 73% 30.27 in 10.0 mi Calm Calm - N/A   Clear
8:15 PM 41.2 °F 32.7 °F 72% 30.27 in 10.0 mi Calm Calm - N/A   Clear
8:35 PM 40.6 °F 32.7 °F 73% 30.27 in 10.0 mi Calm Calm - N/A   Clear
8:55 PM 39.6 °F 32.0 °F 74% 30.27 in 10.0 mi Calm Calm - N/A   Clear
9:15 PM 36.9 °F 31.8 °F 82% 30.27 in 10.0 mi Calm Calm - N/A   Clear
9:35 PM 36.7 °F 32.0 °F 83% 30.27 in 10.0 mi Calm Calm - N/A   Clear
9:55 PM 38.5 °F 32.4 °F 79% 30.28 in 10.0 mi Calm Calm - N/A   Clear
10:15 PM 38.3 °F 32.2 °F 79% 30.28 in 10.0 mi Calm Calm - N/A   Clear
10:35 PM 36.5 °F 32.0 °F 84% 30.28 in 10.0 mi Calm Calm - N/A   Clear
10:55 PM 37.4 °F 32.2 °F 81% 30.28 in 10.0 mi Calm Calm - N/A   Clear
11:15 PM 35.1 °F 31.1 °F 85% 30.28 in 10.0 mi Calm Calm - N/A   Clear
11:35 PM 35.2 °F 31.6 °F 87% 30.27 in 10.0 mi Calm Calm - N/A   Clear
11:55 PM 34.7 °F 31.3 °F 87% 30.26 in 10.0 mi Calm Calm - N/A   Clear